カタログに戻る

TITAN 4B DEB

運用中LEO
NORAD 35415·DEBRIS·🇺🇸 United States

打ち上げ Aug 17, 2000 から Vandenberg Space Force Base

Loading…

次のパス (今後24時間)

TLE

最新Source: Space-Track

元期: Sep 13, 2026, 08:16 UTC

1 35415U 00047D   26256.34491958  .00000296  00000-0  38300-4 0  9998
2 35415  67.9972  18.3318 0064247 248.1314 111.2987 14.93674857 94297

AllMySatでTITAN 4B DEBをリアルタイム追跡

Download on the App Store